KD4NH Weather Reports


Display with metric or nautical units.
time (UTC)temp
F
wind
direction
speed
MPH
gust
MPH
rain 1hr
in
rain 24hr
in
rain mn
in
humidity
%
barometer
mb
20260508185034 68 360 2.0 6.0 0.00 0.01 0.00 41 1013.7
20260508184547 68 204 2.0 6.0 0.00 0.01 0.00 48 1013.7
20260508184104 68 194 1.0 5.0 0.00 0.01 0.00 46 1013.9
20260508184001 68 115 1.0 5.0 0.00 0.01 0.00 45 1013.9
20260508183512 67 257 2.0 8.0 0.00 0.01 0.00 49 1014.0
20260508183029 67 306 1.0 8.0 0.00 0.01 0.00 45 1013.9
20260508182538 66 244 3.0 8.0 0.00 0.01 0.00 44 1013.9
20260508182052 66 167 2.0 5.0 0.00 0.01 0.00 51 1014.1
20260508181513 66 84 1.0 6.0 0.00 0.01 0.00 48 1014.1
20260508181019 65 288 2.0 10.0 0.00 0.01 0.00 47 1014.2
20260508180532 65 313 2.0 10.0 0.00 0.01 0.00 51 1014.2
20260508180044 65 340 5.0 10.0 0.00 0.01 0.00 52 1014.3
20260508175601 65 355 3.0 9.0 0.00 0.01 0.00 50 1014.4
20260508175502 65 322 4.0 9.0 0.00 0.01 0.00 51 1014.4
20260508175019 65 279 1.0 9.0 0.00 0.01 0.00 56 1014.5
20260508174537 65 29 5.0 9.0 0.00 0.01 0.00 46 1014.5
20260508174046 65 37 2.0 7.0 0.00 0.01 0.00 48 1014.8
20260508173556 65 221 2.0 5.0 0.00 0.01 0.00 47 1014.8
20260508173016 64 315 2.0 9.0 0.00 0.01 0.00 49 1014.9
20260508172529 64 64 4.0 9.0 0.00 0.01 0.00 46 1015.0
20260508172040 64 277 3.0 8.0 0.00 0.01 0.00 51 1015.2
20260508171554 63 22 4.0 10.0 0.00 0.01 0.00 51 1015.2
20260508171010 64 43 6.0 10.0 0.00 0.01 0.00 50 1015.2
20260508170526 64 155 0.0 6.0 0.00 0.01 0.00 47 1015.4
20260508170036 64 313 2.0 8.0 0.00 0.01 0.00 54 1015.4
20260508165553 63 299 2.0 8.0 0.00 0.01 0.00 56 1015.6
20260508165006 64 23 2.0 10.0 0.00 0.01 0.00 51 1015.7
20260508164527 64 9 4.0 10.0 0.00 0.01 0.00 47 1015.8
20260508164030 64 247 3.0 7.0 0.00 0.01 0.00 50 1015.8
20260508163544 64 197 1.0 7.0 0.00 0.01 0.00 52 1015.8
20260508163059 64 267 2.0 10.0 0.00 0.01 0.00 54 1015.9
20260508162514 64 55 4.0 11.0 0.00 0.01 0.00 53 1016.0
20260508162025 64 347 2.0 6.0 0.00 0.01 0.00 53 1016.0
20260508161537 64 284 2.0 6.0 0.00 0.01 0.00 54 1016.1
20260508161050 64 355 4.0 8.0 0.00 0.01 0.00 45 1016.2
20260508160507 64 302 1.0 6.0 0.00 0.01 0.00 42 1016.3
20260508160023 63 344 1.0 5.0 0.00 0.01 0.00 51 1016.4
20260508155532 63 333 2.0 4.0 0.00 0.02 0.00 42 1016.5
20260508155042 63 63 1.0 3.0 0.00 0.02 0.00 43 1016.6
20260508154600 63 32 1.0 5.0 0.00 0.02 0.00 48 1016.6
20260508154011 62 289 2.0 9.0 0.00 0.02 0.00 46 1016.6
20260508153526 61 308 4.0 9.0 0.00 0.02 0.00 48 1016.7
20260508153039 61 323 0.0 9.0 0.00 0.02 0.00 42 1016.7
20260508152551 61 10 6.0 9.0 0.00 0.02 0.00 42 1016.8
20260508152008 62 331 2.0 4.0 0.00 0.02 0.00 43 1016.8
20260508151518 62 28 1.0 4.0 0.00 0.02 0.00 50 1016.8
20260508151032 61 139 2.0 5.0 0.00 0.02 0.00 53 1016.9
20260508150541 60 242 2.0 5.0 0.00 0.02 0.00 50 1016.9
20260508150056 59 336 2.0 5.0 0.00 0.02 0.00 49 1017.0
20260508145512 59 15 2.0 4.0 0.00 0.02 0.00 50 1017.0
20260508145023 59 60 1.0 5.0 0.00 0.02 0.00 52 1017.1
20260508144537 59 9 3.0 5.0 0.00 0.02 0.00 55 1017.0
20260508144052 58 61 1.0 4.0 0.00 0.02 0.00 59 1017.1
20260508143504 57 65 1.0 4.0 0.00 0.02 0.00 54 1017.1
20260508143017 57 14 0.0 5.0 0.00 0.02 0.00 61 1017.1
20260508142530 56 61 2.0 5.0 0.00 0.02 0.00 55 1017.2
20260508142042 56 16 1.0 5.0 0.00 0.02 0.00 60 1017.2
20260508141554 56 346 3.0 4.0 0.00 0.02 0.00 70 1017.3
20260508141011 55 19 1.0 4.0 0.00 0.02 0.00 77 1017.2
20260508140520 54 17 2.0 4.0 0.00 0.02 0.00 80 1017.3
20260508140033 54 37 2.0 4.0 0.00 0.02 0.00 77 1017.4
20260508135544 54 39 1.0 4.0 0.00 0.02 0.00 77 1017.4
20260508135058 53 82 1.0 4.0 0.00 0.02 0.00 79 1017.4
20260508134511 53 50 2.0 4.0 0.00 0.02 0.00 82 1017.5
20260508134026 52 26 0.0 4.0 0.00 0.02 0.00 84 1017.4
20260508133538 51 61 0.0 3.0 0.00 0.02 0.00 84 1017.4
20260508133050 51 62 1.0 4.0 0.00 0.02 0.00 86 1017.4
20260508132600 51 349 2.0 4.0 0.00 0.02 0.00 85 1017.4
20260508132505 51 349 2.0 4.0 0.00 0.02 0.00 85 1017.3
20260508132017 50 19 3.0 5.0 0.00 0.02 0.00 86 1017.3
20260508131532 50 18 3.0 5.0 0.00 0.02 0.00 88 1017.3
20260508131042 50 333 2.0 5.0 0.00 0.02 0.00 89 1017.3
20260508130555 49 12 2.0 5.0 0.00 0.02 0.00 89 1017.3
20260508130007 48 17 1.0 6.0 0.00 0.02 0.00 89 1017.3
20260508125522 48 10 3.0 6.0 0.00 0.02 0.00 91 1017.3
20260508125033 48 355 3.0 8.0 0.00 0.02 0.00 91 1017.3
20260508124551 47 13 4.0 8.0 0.00 0.02 0.00 90 1017.4
20260508124101 47 25 4.0 7.0 0.00 0.02 0.00 92 1017.4
20260508124002 47 11 4.0 6.0 0.00 0.02 0.00 93 1017.4
20260508123516 46 19 3.0 6.0 0.00 0.02 0.00 92 1017.4
20260508123026 46 64 4.0 8.0 0.00 0.02 0.00 92 1017.3
20260508122539 46 18 5.0 7.0 0.00 0.02 0.00 92 1017.2
20260508122052 45 49 3.0 8.0 0.00 0.02 0.00 92 1017.1
20260508121506 45 22 5.0 8.0 0.00 0.02 0.00 92 1017.2
20260508121016 46 36 4.0 6.0 0.00 0.02 0.00 92 1017.1
20260508120529 46 49 2.0 5.0 0.00 0.02 0.00 92 1017.0
20260508120040 47 34 1.0 3.0 0.00 0.02 0.00 94 1016.9
20260508115555 46 34 0.0 1.0 0.00 0.08 0.00 96 1017.0
20260508115007 46 34 0.0 0.0 0.00 0.08 0.00 97 1016.9
20260508114522 45 136 0.0 0.0 0.00 0.08 0.00 98 1016.9
20260508114031 45 49 0.0 0.0 0.00 0.08 0.00 98 1016.8
20260508113546 44 17 0.0 0.0 0.00 0.08 0.00 98 1016.7
20260508113107 44 47 0.0 0.0 0.00 0.08 0.00 97 1016.6
20260508113004 44 58 0.0 0.0 0.00 0.08 0.00 97 1016.6
20260508112513 43 58 0.0 0.0 0.00 0.08 0.00 97 1016.5
20260508112029 43 58 0.0 0.0 0.00 0.08 0.00 97 1016.4
20260508111542 43 58 0.0 0.0 0.00 0.08 0.00 97 1016.4
20260508111059 42 58 0.0 0.0 0.00 0.08 0.00 97 1016.3
20260508110507 42 58 0.0 0.0 0.00 0.08 0.00 97 1016.2
20260508110024 42 58 0.0 0.0 0.00 0.08 0.00 97 1016.1
20260508105538 42 59 0.0 0.0 0.00 0.13 0.00 97 1016.2
20260508105053 42 59 0.0 0.0 0.00 0.13 0.00 97 1016.1
20260508104507 43 59 0.0 0.0 0.00 0.13 0.00 97 1016.0
20260508104019 43 59 0.0 0.0 0.00 0.13 0.00 97 1016.0
20260508103529 43 59 0.0 0.0 0.00 0.13 0.00 97 1015.8
20260508103047 43 59 0.0 0.0 0.00 0.13 0.00 97 1015.7
20260508102555 43 59 0.0 0.0 0.00 0.13 0.00 97 1015.5
20260508102012 43 59 0.0 0.0 0.00 0.13 0.00 97 1015.6
20260508101522 43 59 0.0 0.0 0.00 0.13 0.00 97 1015.5
20260508101036 43 59 0.0 0.0 0.00 0.13 0.00 97 1015.4
20260508100547 43 59 0.0 0.0 0.00 0.13 0.00 97 1015.4
20260508100012 43 59 0.0 0.0 0.00 0.13 0.00 97 1015.3
20260508095514 43 59 0.0 0.0 0.00 0.27 0.00 97 1015.3
20260508095027 43 59 0.0 0.0 0.00 0.27 0.00 97 1015.2
20260508094545 43 59 0.0 0.0 0.00 0.27 0.00 97 1015.2
20260508094059 43 59 0.0 0.0 0.00 0.27 0.00 97 1015.1
20260508093512 43 59 0.0 0.0 0.00 0.27 0.00 96 1015.1
20260508093022 43 59 0.0 0.0 0.00 0.27 0.00 96 1015.2
20260508092536 44 59 0.0 0.0 0.00 0.27 0.00 97 1015.2
20260508092051 44 59 0.0 0.0 0.00 0.27 0.00 97 1015.1
20260508091503 44 59 0.0 0.0 0.00 0.27 0.00 97 1015.0
20260508091013 44 59 0.0 0.0 0.00 0.27 0.00 97 1014.9
20260508090528 44 59 0.0 0.0 0.00 0.27 0.00 97 1015.0
20260508090047 44 59 0.0 0.0 0.00 0.27 0.00 97 1015.0
20260508085557 44 59 0.0 0.0 0.00 0.28 0.00 97 1014.9
20260508085011 44 59 0.0 0.0 0.00 0.28 0.00 97 1014.9
20260508084525 44 59 0.0 0.0 0.00 0.28 0.00 96 1014.8
20260508084037 44 59 0.0 0.0 0.00 0.28 0.00 96 1014.8
20260508083550 44 59 0.0 0.0 0.00 0.28 0.00 96 1014.8
20260508083113 44 59 0.0 0.0 0.00 0.28 0.00 96 1014.9
20260508083001 44 59 0.0 0.0 0.00 0.28 0.00 96 1014.8
20260508082515 44 59 0.0 0.0 0.00 0.28 0.00 96 1014.8
20260508082027 44 59 0.0 0.0 0.00 0.28 0.00 96 1014.8
20260508081554 44 59 0.0 0.0 0.00 0.28 0.00 96 1014.8
20260508081057 44 59 0.0 0.0 0.00 0.28 0.00 96 1014.8
20260508080510 44 59 0.0 0.0 0.00 0.28 0.00 96 1014.8
20260508080019 45 59 0.0 0.0 0.00 0.28 0.00 96 1014.8
20260508075533 45 59 0.0 0.0 0.00 0.28 0.00 96 1014.7
20260508075045 45 59 0.0 0.0 0.00 0.28 0.00 96 1014.7
20260508074503 45 59 0.0 0.0 0.00 0.28 0.00 96 1014.7
20260508074017 45 59 0.0 0.0 0.00 0.28 0.00 96 1014.7
20260508073530 45 59 0.0 0.0 0.00 0.28 0.00 96 1014.8
20260508073049 45 59 0.0 0.0 0.00 0.28 0.00 96 1014.7
20260508072559 45 59 0.0 0.0 0.00 0.28 0.00 96 1014.6
20260508072502 45 59 0.0 0.0 0.00 0.28 0.00 96 1014.6
20260508072016 45 59 0.0 0.0 0.00 0.28 0.00 96 1014.6
20260508071529 45 59 0.0 0.0 0.00 0.28 0.00 96 1014.6
20260508071043 45 59 0.0 0.0 0.00 0.28 0.00 96 1014.6
20260508070553 46 59 0.0 0.0 0.00 0.28 0.00 96 1014.4
20260508070019 46 59 0.0 0.0 0.00 0.28 0.00 96 1014.4
20260508065523 46 59 0.0 0.0 0.00 0.31 0.00 96 1014.6
20260508065041 46 59 0.0 0.0 0.00 0.31 0.00 96 1014.6
20260508064605 46 59 0.0 0.0 0.00 0.31 0.00 96 1014.7
20260508064007 46 59 0.0 0.0 0.00 0.31 0.00 96 1014.6
20260508063518 46 59 0.0 0.0 0.00 0.31 0.00 96 1014.6
20260508063036 47 59 0.0 0.0 0.00 0.31 0.00 96 1014.6
20260508062545 47 59 0.0 0.0 0.00 0.31 0.00 97 1014.7
20260508062059 47 59 0.0 0.0 0.00 0.31 0.00 96 1014.6
20260508062001 47 59 0.0 0.0 0.00 0.31 0.00 96 1014.6
20260508061514 47 59 0.0 0.0 0.00 0.31 0.00 96 1014.6
20260508061028 47 59 0.0 0.0 0.00 0.31 0.00 97 1014.7
20260508060537 47 59 0.0 0.0 0.00 0.31 0.00 97 1014.7
20260508060053 47 59 0.0 0.0 0.00 0.31 0.00 97 1014.8
20260508055511 47 59 0.0 0.0 0.00 0.31 0.00 97 1014.8
20260508055021 47 59 0.0 0.0 0.00 0.31 0.00 97 1014.7
20260508054535 47 59 0.0 0.0 0.00 0.31 0.00 97 1014.8
20260508054047 47 57 0.0 0.0 0.00 0.31 0.00 97 1014.8
20260508053559 47 57 0.0 0.0 0.00 0.31 0.00 97 1014.7
20260508053503 47 57 0.0 0.0 0.00 0.31 0.00 97 1014.7
20260508053016 47 57 0.0 4.0 0.00 0.31 0.00 97 1014.6
20260508052532 47 57 0.0 4.0 0.00 0.31 0.00 97 1014.7
20260508052041 47 69 0.0 0.0 0.00 0.31 0.00 97 1014.6
20260508051555 47 226 0.0 0.0 0.00 0.31 0.00 96 1014.7
20260508051007 47 226 0.0 0.0 0.00 0.31 0.00 96 1014.6
20260508050525 47 226 0.0 0.0 0.00 0.31 0.00 96 1014.6
20260508050033 47 226 0.0 0.0 0.00 0.31 0.00 97 1014.5
20260508045546 47 226 0.0 0.0 0.00 0.32 0.00 97 1014.4
20260508045101 47 226 0.0 0.0 0.00 0.32 0.00 97 1014.4
20260508045002 47 226 0.0 0.0 0.00 0.32 0.00 97 1014.4
20260508044515 47 226 0.0 0.0 0.00 0.32 0.00 97 1014.4
20260508044024 46 226 0.0 0.0 0.00 0.32 0.00 96 1014.3
20260508043539 46 226 0.0 0.0 0.00 0.32 0.00 97 1014.2
20260508043100 46 209 0.0 0.0 0.00 0.32 0.00 97 1014.2
20260508042505 46 288 0.0 0.0 0.00 0.32 0.00 96 1014.1
20260508042015 46 288 0.0 0.0 0.00 0.32 0.00 97 1014.0
20260508041530 46 288 0.0 0.0 0.00 0.32 0.00 96 1014.0
20260508041041 46 288 0.0 0.0 0.00 0.32 0.00 96 1013.9
20260508040555 46 288 0.0 0.0 0.00 0.32 0.00 96 1013.9
20260508040019 45 288 0.0 0.0 0.00 0.32 0.00 96 1013.9
20260508035519 46 288 0.0 0.0 0.00 0.32 0.32 96 1013.7
20260508035031 46 288 0.0 0.0 0.00 0.32 0.32 96 1013.8
20260508034547 46 288 0.0 0.0 0.00 0.32 0.32 96 1013.7
20260508034058 46 288 0.0 0.0 0.00 0.32 0.32 96 1013.7
20260508033515 46 288 0.0 0.0 0.00 0.32 0.32 96 1013.8
20260508033025 46 288 0.0 0.0 0.00 0.32 0.32 95 1013.8
20260508032541 46 288 0.0 0.0 0.00 0.32 0.32 95 1013.8
20260508032050 46 288 0.0 0.0 0.00 0.32 0.32 95 1013.9
20260508031517 46 288 0.0 0.0 0.00 0.32 0.32 95 1013.8
20260508031025 46 288 0.0 0.0 0.00 0.32 0.32 95 1013.7
20260508030537 46 288 0.0 0.0 0.00 0.32 0.32 95 1013.6
20260508030059 46 288 0.0 0.0 0.00 0.32 0.32 95 1013.6
20260508025502 46 288 0.0 0.0 0.00 0.35 0.32 95 1013.5
20260508025017 46 288 0.0 0.0 0.00 0.35 0.32 95 1013.5
20260508024533 46 288 0.0 0.0 0.00 0.35 0.32 95 1013.4
20260508024043 46 288 0.0 0.0 0.00 0.35 0.32 95 1013.3
20260508023555 46 288 0.0 0.0 0.00 0.35 0.32 95 1013.2
20260508023003 46 288 0.0 0.0 0.00 0.35 0.32 95 1013.2
20260508022516 46 288 0.0 0.0 0.00 0.35 0.32 95 1013.3
20260508022031 46 288 0.0 0.0 0.00 0.35 0.32 95 1013.2
20260508021541 46 288 0.0 0.0 0.00 0.35 0.32 95 1013.2
20260508021055 46 288 0.0 0.0 0.00 0.35 0.32 94 1013.0
20260508020509 46 288 0.0 0.0 0.00 0.35 0.32 94 1013.1
20260508020021 47 288 0.0 0.0 0.00 0.35 0.32 94 1013.0
20260508015531 47 288 0.0 0.0 0.00 0.43 0.32 94 1012.8
20260508015045 47 288 0.0 0.0 0.00 0.43 0.32 94 1012.7
20260508014555 47 288 0.0 0.0 0.00 0.43 0.32 94 1012.6
20260508014011 47 288 0.0 0.0 0.00 0.43 0.32 94 1012.6
20260508013523 47 288 0.0 0.0 0.00 0.43 0.32 94 1012.5
20260508013037 47 288 0.0 0.0 0.00 0.43 0.32 94 1012.4
20260508012547 47 288 0.0 0.0 0.00 0.43 0.32 93 1012.3
20260508012004 48 288 0.0 0.0 0.00 0.43 0.32 93 1012.2
20260508011518 48 288 0.0 0.0 0.00 0.43 0.32 93 1012.1
20260508011027 48 288 0.0 0.0 0.00 0.43 0.32 93 1012.0
20260508010541 48 288 0.0 0.0 0.00 0.43 0.32 93 1012.0
20260508010051 48 288 0.0 0.0 0.00 0.43 0.32 92 1012.0
20260508005512 49 288 0.0 0.0 0.00 0.43 0.32 92 1011.8
20260508005018 49 288 0.0 0.0 0.00 0.43 0.32 92 1011.7
20260508004532 49 288 0.0 0.0 0.00 0.43 0.32 91 1011.7
20260508004043 50 288 0.0 0.0 0.00 0.43 0.32 91 1011.7
20260508003600 50 288 0.0 0.0 0.00 0.43 0.32 91 1011.7
20260508003009 50 288 0.0 0.0 0.00 0.43 0.32 91 1011.4
20260508002525 51 288 0.0 0.0 0.00 0.43 0.32 91 1011.5
20260508002035 51 288 0.0 0.0 0.00 0.43 0.32 90 1011.5
20260508001549 51 288 0.0 0.0 0.00 0.43 0.32 90 1011.4
20260508001005 52 288 0.0 0.0 0.00 0.43 0.32 90 1011.4
20260508000523 52 288 0.0 0.0 0.00 0.43 0.32 90 1011.5
20260508000031 52 288 0.0 0.0 0.00 0.43 0.32 90 1011.6
20260507235545 52 288 0.0 0.0 0.00 0.44 0.32 90 1011.5
20260507235059 53 288 0.0 0.0 0.00 0.44 0.32 89 1011.4
20260507234512 53 288 0.0 0.0 0.00 0.44 0.32 89 1011.5
20260507234021 53 288 0.0 0.0 0.00 0.44 0.32 88 1011.5
20260507233535 53 288 0.0 0.0 0.00 0.44 0.32 88 1011.4
20260507233045 53 288 0.0 0.0 0.01 0.44 0.32 87 1011.5
20260507232506 53 288 0.0 0.0 0.01 0.44 0.32 87 1011.5
20260507232018 53 288 0.0 0.0 0.01 0.44 0.32 88 1011.6
20260507231530 53 288 0.0 0.0 0.01 0.44 0.32 87 1011.6
20260507231044 54 288 0.0 0.0 0.01 0.44 0.32 86 1011.6
20260507230557 54 288 0.0 4.0 0.01 0.44 0.32 86 1011.6
20260507230011 54 288 0.0 4.0 0.01 0.44 0.32 85 1011.5
20260507225524 54 200 1.0 4.0 0.01 0.44 0.32 85 1011.6
20260507225039 54 253 0.0 4.0 0.01 0.44 0.32 84 1011.6
20260507224551 54 279 0.0 4.0 0.01 0.44 0.32 83 1011.5
20260507224008 54 302 0.0 3.0 0.01 0.44 0.32 85 1011.6
20260507223521 54 277 0.0 3.0 0.01 0.44 0.32 86 1011.5
20260507223035 54 277 0.0 3.0 0.00 0.43 0.31 85 1011.4
20260507222549 54 277 0.0 3.0 0.00 0.43 0.31 85 1011.4
20260507222007 54 285 1.0 3.0 0.00 0.43 0.31 84 1011.3
20260507221515 54 234 0.0 4.0 0.00 0.43 0.31 84 1011.3
20260507221030 54 234 0.0 4.0 0.00 0.43 0.31 84 1011.2
20260507220542 54 234 0.0 2.0 0.00 0.43 0.31 84 1011.2
20260507220054 54 241 0.0 1.0 0.00 0.43 0.31 85 1011.1
20260507215509 54 242 0.0 1.0 0.00 0.43 0.31 87 1011.2
20260507215027 53 242 0.0 2.0 0.00 0.43 0.31 85 1011.2
20260507214536 53 242 0.0 2.0 0.00 0.43 0.31 88 1011.1
20260507214051 53 242 0.0 2.0 0.00 0.43 0.31 86 1011.0
20260507213507 53 350 0.0 3.0 0.00 0.43 0.31 85 1010.9
20260507213020 53 159 0.0 1.0 0.00 0.43 0.31 88 1010.8
20260507212536 53 144 0.0 2.0 0.00 0.43 0.31 87 1010.8
20260507212047 53 213 0.0 3.0 0.00 0.43 0.31 89 1010.7
20260507211503 53 213 0.0 4.0 0.00 0.43 0.31 90 1010.8
20260507211014 53 213 1.0 6.0 0.00 0.43 0.31 89 1010.8
20260507210528 52 256 1.0 6.0 0.00 0.43 0.31 88 1010.7
20260507210038 53 185 0.0 3.0 0.00 0.43 0.31 89 1010.8
20260507205555 53 291 0.0 4.0 0.00 0.43 0.31 89 1010.7
20260507205009 53 323 1.0 6.0 0.00 0.43 0.31 88 1010.7
20260507204520 53 333 1.0 9.0 0.00 0.43 0.31 88 1010.7
20260507204033 53 325 2.0 9.0 0.00 0.43 0.31 87 1010.7
20260507203546 53 5 0.0 4.0 0.00 0.43 0.31 87 1010.6
20260507203059 53 246 1.0 5.0 0.00 0.43 0.31 88 1010.6
20260507202516 53 311 2.0 5.0 0.00 0.43 0.31 88 1010.5
20260507202024 53 279 0.0 4.0 0.00 0.43 0.31 90 1010.5
20260507201541 53 243 1.0 5.0 0.00 0.43 0.31 89 1010.5
20260507201053 53 291 2.0 5.0 0.00 0.43 0.31 89 1010.4
20260507200511 53 232 1.0 3.0 0.00 0.43 0.31 91 1010.4
20260507200022 53 217 0.0 3.0 0.00 0.43 0.31 91 1010.3
20260507195536 52 346 0.0 4.0 0.00 0.43 0.31 92 1010.5
20260507195049 52 211 2.0 5.0 0.00 0.43 0.31 92 1010.4
20260507194507 52 211 1.0 5.0 0.00 0.43 0.31 91 1010.3
20260507194020 51 232 2.0 5.0 0.00 0.43 0.31 92 1010.3
20260507193530 51 232 2.0 6.0 0.00 0.43 0.31 92 1010.3
20260507193045 51 242 1.0 10.0 0.00 0.43 0.31 92 1010.4
20260507192554 52 270 4.0 10.0 0.00 0.43 0.31 93 1010.4
20260507192012 52 5 1.0 3.0 0.00 0.43 0.31 94 1010.4
20260507191529 52 227 0.0 4.0 0.00 0.43 0.31 94 1010.3
20260507191041 52 198 1.0 4.0 0.00 0.43 0.31 94 1010.3
20260507190553 52 134 0.0 4.0 0.00 0.43 0.31 94 1010.4
20260507190013 52 5 0.0 4.0 0.00 0.43 0.31 95 1010.4
20260507185520 52 5 1.0 4.0 0.00 0.43 0.31 94 1010.5